EN

Hourly Weather Bozhkovka

Today, 20 April, Tuesday

Time Temperature Precipitation Wind Pressure Humidity
00:00 +11°C° 0 mm 1 mps 739 mmHg 86%
01:00 +10°C° 0 mm 1 mps 739 mmHg 88%
02:00 +10°C° 0 mm 1 mps 738 mmHg 89%
03:00 +9°C° 0 mm 1 mps 738 mmHg 90%
04:00 +8°C° 0 mm 2 mps 738 mmHg 91%
05:00 +8°C° 0 mm 2 mps 737 mmHg 92%
06:00 +8°C° 0 mm 2 mps 737 mmHg 93%
07:00 +9°C° 1.1 mm 2 mps 737 mmHg 94%
08:00 +9°C° 1.1 mm 3 mps 736 mmHg 94%
09:00 +10°C° 1.1 mm 4 mps 736 mmHg 94%
10:00 +9°C° 1.3 mm 5 mps 735 mmHg 93%
11:00 +10°C° 1.3 mm 5 mps 734 mmHg 93%
12:00 +10°C° 1.3 mm 6 mps 733 mmHg 93%
13:00 +11°C° 0.6 mm 6 mps 733 mmHg 92%
14:00 +11°C° 0.6 mm 7 mps 733 mmHg 91%
15:00 +12°C° 0.6 mm 7 mps 732 mmHg 90%
16:00 +12°C° 0.2 mm 7 mps 732 mmHg 88%
17:00 +12°C° 0.2 mm 8 mps 733 mmHg 86%
18:00 +12°C° 0.2 mm 8 mps 733 mmHg 84%
19:00 +11°C° 0 mm 7 mps 733 mmHg 85%
20:00 +10°C° 0 mm 7 mps 733 mmHg 87%
21:00 +9°C° 0 mm 6 mps 734 mmHg 88%
22:00 +9°C° 0 mm 7 mps 734 mmHg 87%
23:00 +7°C° 0 mm 8 mps 734 mmHg 86%

Tomorrow, 21 April, Wednesday

Time Temperature Precipitation Wind Pressure Humidity
00:00 +7°C° 0 mm 9 mps 734 mmHg 85%
01:00 +7°C° 0 mm 9 mps 735 mmHg 86%
02:00 +7°C° 0 mm 8 mps 736 mmHg 86%
03:00 +6°C° 0 mm 8 mps 736 mmHg 87%
04:00 +6°C° 0 mm 8 mps 737 mmHg 86%
05:00 +6°C° 0 mm 7 mps 738 mmHg 86%
06:00 +6°C° 0 mm 7 mps 738 mmHg 85%
07:00 +8°C° 0 mm 7 mps 739 mmHg 81%
08:00 +9°C° 0 mm 6 mps 740 mmHg 76%
09:00 +9°C° 0 mm 6 mps 740 mmHg 72%
10:00 +11°C° 0 mm 6 mps 741 mmHg 65%
11:00 +13°C° 0 mm 6 mps 741 mmHg 59%
12:00 +14°C° 0 mm 6 mps 741 mmHg 52%
13:00 +14°C° 0 mm 6 mps 741 mmHg 51%
14:00 +14°C° 0 mm 6 mps 741 mmHg 51%
15:00 +14°C° 0 mm 6 mps 741 mmHg 50%
16:00 +14°C° 0 mm 5 mps 742 mmHg 53%
17:00 +13°C° 0 mm 5 mps 742 mmHg 56%
18:00 +13°C° 0 mm 5 mps 742 mmHg 59%
19:00 +11°C° 0 mm 4 mps 743 mmHg 65%
20:00 +10°C° 0 mm 4 mps 743 mmHg 71%
21:00 +8°C° 0 mm 3 mps 744 mmHg 77%
22:00 +8°C° 0 mm 3 mps 744 mmHg 78%
23:00 +7°C° 0 mm 3 mps 744 mmHg 80%

Day after tomorrow, 22 April, Thursday

Time Temperature Precipitation Wind Pressure Humidity
00:00 +7°C° 0 mm 3 mps 744 mmHg 82%
01:00 +7°C° 0 mm 3 mps 744 mmHg 83%
02:00 +5°C° 0 mm 3 mps 744 mmHg 85%
03:00 +6°C° 0 mm 2 mps 744 mmHg 86%
04:00 +6°C° 0 mm 2 mps 744 mmHg 87%
05:00 +6°C° 0 mm 2 mps 745 mmHg 87%
06:00 +6°C° 0 mm 2 mps 745 mmHg 88%
07:00 +8°C° 0 mm 2 mps 745 mmHg 81%
08:00 +10°C° 0 mm 3 mps 746 mmHg 73%
09:00 +12°C° 0 mm 3 mps 746 mmHg 66%
10:00 +13°C° 0 mm 3 mps 746 mmHg 61%
11:00 +14°C° 0 mm 3 mps 746 mmHg 56%
12:00 +17°C° 0 mm 3 mps 746 mmHg 50%
13:00 +17°C° 0.2 mm 3 mps 746 mmHg 49%
14:00 +17°C° 0.2 mm 3 mps 746 mmHg 48%
15:00 +17°C° 0.2 mm 3 mps 745 mmHg 46%
16:00 +17°C° 0.1 mm 3 mps 746 mmHg 51%
17:00 +16°C° 0.1 mm 3 mps 746 mmHg 56%
18:00 +15°C° 0.1 mm 2 mps 746 mmHg 60%
19:00 +14°C° 0 mm 2 mps 746 mmHg 64%
20:00 +13°C° 0 mm 2 mps 746 mmHg 68%
21:00 +12°C° 0 mm 2 mps 746 mmHg 71%
22:00 +10°C° 0 mm 2 mps 746 mmHg 73%
23:00 +10°C° 0 mm 2 mps 746 mmHg 74%

23 April, Friday

Time Temperature Precipitation Wind Pressure Humidity
00:00 +9°C° 0 mm 2 mps 746 mmHg 76%
01:00 +10°C° 0 mm 1 mps 746 mmHg 76%
02:00 +10°C° 0 mm 1 mps 746 mmHg 75%
03:00 +9°C° 0 mm 1 mps 746 mmHg 75%
04:00 +9°C° 0.1 mm 1 mps 746 mmHg 75%
05:00 +9°C° 0.1 mm 1 mps 746 mmHg 75%
06:00 +9°C° 0.1 mm 1 mps 746 mmHg 75%
07:00 +11°C° 0 mm 1 mps 746 mmHg 69%
08:00 +13°C° 0 mm 1 mps 746 mmHg 64%
09:00 +14°C° 0 mm 2 mps 746 mmHg 58%
10:00 +15°C° 0 mm 2 mps 746 mmHg 53%
11:00 +16°C° 0 mm 2 mps 746 mmHg 49%
12:00 +17°C° 0 mm 2 mps 746 mmHg 44%
13:00 +18°C° 0 mm 3 mps 746 mmHg 41%
14:00 +18°C° 0 mm 3 mps 745 mmHg 39%
15:00 +19°C° 0 mm 3 mps 745 mmHg 37%
16:00 +18°C° 0 mm 3 mps 745 mmHg 40%
17:00 +17°C° 0 mm 3 mps 745 mmHg 44%
18:00 +17°C° 0 mm 3 mps 745 mmHg 48%
19:00 +14°C° 0 mm 3 mps 745 mmHg 52%
20:00 +13°C° 0 mm 3 mps 745 mmHg 56%
21:00 +11°C° 0 mm 3 mps 745 mmHg 61%
22:00 +10°C° 0 mm 3 mps 744 mmHg 64%
23:00 +10°C° 0 mm 2 mps 744 mmHg 67%

24 April, Saturday

Time Temperature Precipitation Wind Pressure Humidity
00:00 +9°C° 0 mm 2 mps 744 mmHg 70%
01:00 +9°C° 0 mm 2 mps 744 mmHg 71%
02:00 +8°C° 0 mm 2 mps 743 mmHg 72%
03:00 +8°C° 0 mm 2 mps 743 mmHg 73%
04:00 +8°C° 0 mm 2 mps 743 mmHg 74%
05:00 +8°C° 0 mm 2 mps 743 mmHg 75%
06:00 +8°C° 0 mm 2 mps 743 mmHg 76%
07:00 +9°C° 0 mm 3 mps 742 mmHg 73%
08:00 +11°C° 0 mm 4 mps 742 mmHg 70%
09:00 +12°C° 0 mm 4 mps 742 mmHg 68%
10:00 +13°C° 0.1 mm 5 mps 742 mmHg 62%
11:00 +14°C° 0.1 mm 6 mps 742 mmHg 56%
12:00 +16°C° 0.1 mm 7 mps 742 mmHg 50%
13:00 +15°C° 0 mm 8 mps 741 mmHg 51%
14:00 +15°C° 0 mm 8 mps 741 mmHg 52%
15:00 +15°C° 0 mm 8 mps 741 mmHg 53%
16:00 +14°C° 0.1 mm 7 mps 741 mmHg 58%
17:00 +11°C° 0.1 mm 7 mps 741 mmHg 63%
18:00 +9°C° 0.1 mm 6 mps 742 mmHg 68%
19:00 +9°C° 0 mm 5 mps 742 mmHg 68%
20:00 +9°C° 0 mm 3 mps 742 mmHg 67%
21:00 +8°C° 0 mm 2 mps 742 mmHg 67%
22:00 +7°C° 0 mm 3 mps 743 mmHg 62%
23:00 +5°C° 0 mm 4 mps 743 mmHg 58%

25 April, Sunday

Time Temperature Precipitation Wind Pressure Humidity
00:00 +3°C° 0 mm 5 mps 744 mmHg 54%
01:00 +4°C° 0 mm 4 mps 744 mmHg 57%
02:00 +3°C° 0 mm 4 mps 744 mmHg 61%
03:00 +2°C° 0 mm 3 mps 744 mmHg 64%
04:00 +2°C° 0 mm 3 mps 744 mmHg 65%
05:00 +2°C° 0 mm 3 mps 744 mmHg 66%
06:00 +2°C° 0 mm 3 mps 745 mmHg 68%
07:00 +3°C° 0 mm 3 mps 745 mmHg 60%
08:00 +4°C° 0 mm 3 mps 745 mmHg 52%
09:00 +7°C° 0 mm 3 mps 745 mmHg 44%
10:00 +8°C° 0 mm 3 mps 745 mmHg 41%
11:00 +9°C° 0 mm 2 mps 745 mmHg 37%
12:00 +10°C° 0 mm 2 mps 745 mmHg 33%
13:00 +11°C° 0 mm 3 mps 744 mmHg 34%
14:00 +12°C° 0 mm 3 mps 744 mmHg 34%
15:00 +12°C° 0 mm 4 mps 744 mmHg 35%
16:00 +12°C° 0 mm 4 mps 744 mmHg 39%
17:00 +12°C° 0 mm 4 mps 743 mmHg 42%
18:00 +11°C° 0 mm 4 mps 743 mmHg 46%
19:00 +10°C° 0 mm 4 mps 743 mmHg 50%
20:00 +7°C° 0 mm 4 mps 743 mmHg 54%
21:00 +6°C° 0 mm 4 mps 743 mmHg 59%
22:00 +5°C° 0 mm 4 mps 743 mmHg 57%
23:00 +5°C° 0 mm 4 mps 743 mmHg 56%
Show more

We Need Your Consent

Meteoprog and our Service Providers may store and access personal data such as cookies, device identifiers or other similar technologies on your device and process such data to personalise content and ads, as well as provide social media features and to analyse the traffic.

  • Store and/or access information on your device

    Cookies, device identifiers or other information can be stored or accessed on your device for the purposes indicated above.

  • Personalised ads and content, ad and content measurement, audience insights, and products development

    Ads and content can be personalised based on a profile. More data can be added to better personalise ads and content. Ad and content performance can be measured. Insights about the audience who saw the ads and content can be derived. Such data can be used to develop or improve user’s experience, systems and software.

By clicking ‘I Agree’ you will allow the use of indicated cookies, device identifiers, web beacons or other similar technologies. Your settings can be changed in the browser on your device.

For certain purposes, legitimate interests may be relied on, rather than consent. You can read more about this in our Privacy and Cookie Policy.